EW9311 Weather Reports


time (UTC)temp
F
wind
direction
speed
knots
gust
knots
rain 1hr
in
rain 24hr
in
rain mn
in
humidity
%
barometer
mb
20260507064535 39 212 0.9 7.0 0.04 0.21 0.21 92 1018.8
20260507063032 39 224 0.9 7.0 0.03 0.19 0.19 93 1018.7
20260507061530 39 244 0.0 2.6 0.03 0.18 0.18 93 1018.5
20260507060030 39 0 0.0 3.5 0.03 0.17 0.17 93 1018.5
20260507054536 39 215 0.9 5.2 0.03 0.17 0.17 92 1018.3
20260507053030 40 0 0.0 0.0 0.03 0.16 0.16 92 1018.1
20260507051528 40 0 0.0 3.5 0.05 0.15 0.15 91 1018.1
20260507050035 39 209 0.9 3.5 0.08 0.14 0.14 92 1018.2
20260507044536 39 142 0.9 7.8 0.09 0.14 0.14 91 1018.0
20260507043030 39 167 1.7 8.7 0.10 0.13 0.13 91 1018.1
20260507041536 40 183 1.7 13.9 0.07 0.10 0.10 90 1018.2
20260507040029 41 216 2.6 13.9 0.03 0.06 0.06 88 1018.0
20260507034528 41 232 2.6 12.2 0.03 0.05 0.05 86 1017.8
20260507033034 43 0 0.0 5.2 0.02 0.03 0.03 85 1017.3
20260507031530 44 0 0.0 0.0 0.02 0.03 0.03 84 1016.8
20260507030029 44 0 0.0 3.5 0.03 0.03 0.03 83 1016.8
20260507024527 44 0 0.0 6.1 0.02 0.02 0.02 79 1016.9
20260507023029 45 166 0.9 7.0 0.01 0.01 0.01 79 1016.7
20260507021530 45 0 0.0 9.6 0.01 0.01 0.01 80 1016.4
20260507020030 45 0 0.0 0.0 0.00 0.00 0.00 82 1016.5
20260507014540 44 0 0.0 2.6 0.00 0.00 0.00 78 1016.5
20260507013029 45 202 0.9 6.1 0.00 0.00 0.00 78 1016.6
20260507011528 45 0 0.0 8.7 0.00 0.00 0.00 79 1016.5
20260507010029 45 0 0.0 7.0 0.00 0.00 0.00 75 1016.6
20260507004538 45 0 0.0 2.6 0.00 0.00 0.00 77 1016.5
20260507003031 45 238 0.0 5.2 0.00 0.00 0.00 76 1016.4
20260507001528 45 217 0.9 5.2 0.00 0.00 0.00 76 1016.3
20260507000028 45 0 0.0 2.6 0.00 0.00 0.00 77 1016.3
20260506234535 45 0 0.0 7.8 0.00 0.00 0.00 77 1016.2
20260506233029 45 0 0.0 7.8 0.00 0.00 0.00 77 1016.1
20260506231533 45 265 0.0 8.7 0.00 0.00 0.00 77 1016.1
20260506230027 46 302 0.9 11.3 0.00 0.00 0.00 73 1016.0
20260506224530 45 263 1.7 13.0 0.00 0.00 0.00 72 1016.0
20260506223044 45 294 1.7 9.6 0.00 0.00 0.00 71 1015.7
20260506221528 45 289 2.6 13.9 0.00 0.00 0.00 71 1015.8
20260506220031 46 279 1.7 13.0 0.00 0.00 0.00 68 1015.6
20260506214528 49 0 0.0 0.0 0.00 0.00 0.00 66 1015.4
20260506213031 47 0 0.0 0.0 0.00 0.00 0.00 68 1015.2
20260506211539 48 0 0.0 0.0 0.00 0.00 0.00 70 1015.3
20260506210035 47 0 0.0 1.7 0.00 0.00 0.00 71 1015.0
20260506204531 46 0 0.0 0.0 0.00 0.00 0.00 73 1015.0
20260506203032 46 0 0.0 3.5 0.00 0.00 0.00 74 1015.0
20260506201535 46 0 0.0 6.1 0.00 0.00 0.00 74 1014.8
20260506200029 46 274 0.0 6.1 0.00 0.00 0.00 74 1014.7
20260506194531 45 0 0.0 6.1 0.00 0.00 0.00 75 1014.7
20260506193027 44 0 0.0 5.2 0.00 0.00 0.00 76 1014.7
20260506191530 44 0 0.9 7.0 0.00 0.00 0.00 75 1014.7
20260506190028 45 0 0.0 8.7 0.00 0.00 0.00 73 1014.6
20260506184531 45 0 0.0 4.3 0.00 0.00 0.00 73 1014.4
20260506183036 44 0 0.0 1.7 0.00 0.00 0.00 75 1014.5
20260506181528 43 265 0.0 1.7 0.00 0.00 0.00 76 1014.4
20260506180030 43 0 0.0 1.7 0.00 0.00 0.00 76 1014.2
20260506174531 43 0 0.0 1.7 0.00 0.00 0.00 77 1014.1
20260506173031 42 0 0.0 0.0 0.00 0.00 0.00 78 1014.3
20260506171533 42 0 0.0 0.0 0.00 0.00 0.00 78 1014.1
20260506170033 42 0 0.0 0.0 0.00 0.00 0.00 79 1014.0
20260506164528 41 0 0.0 0.0 0.00 0.00 0.00 79 1013.9
20260506163030 40 0 0.0 0.0 0.00 0.00 0.00 80 1013.8
20260506161533 40 0 0.0 0.0 0.00 0.00 0.00 81 1013.9
20260506160028 39 0 0.0 0.0 0.00 0.00 0.00 82 1013.8
20260506154534 39 0 0.0 0.0 0.00 0.00 0.00 81 1013.7
20260506153029 39 0 0.0 0.0 0.00 0.00 0.00 82 1013.7
20260506151533 39 0 0.0 0.0 0.00 0.00 0.00 81 1013.6
20260506150030 39 0 0.0 0.0 0.00 0.00 0.00 80 1013.6
20260506144536 39 0 0.0 0.9 0.00 0.00 0.00 80 1013.4
20260506143033 38 0 0.0 0.0 0.00 0.00 0.00 81 1013.4
20260506141527 38 0 0.0 0.0 0.00 0.00 0.00 80 1013.4
20260506140028 38 0 0.0 0.0 0.00 0.00 0.00 79 1013.4
20260506134528 38 0 0.0 1.7 0.00 0.00 0.00 79 1013.4
20260506133029 38 0 0.0 0.9 0.00 0.00 0.00 79 1013.3
20260506131532 39 0 0.0 0.0 0.00 0.00 0.00 78 1013.3
20260506130030 38 0 0.0 0.9 0.00 0.00 0.00 79 1013.2
20260506124530 38 0 0.0 0.0 0.00 0.01 0.00 79 1013.0
20260506123033 38 0 0.0 0.9 0.00 0.01 0.00 80 1013.1
20260506121530 38 0 0.0 0.9 0.00 0.01 0.00 80 1012.9
20260506120038 39 0 0.0 3.5 0.00 0.01 0.00 80 1012.8
20260506114532 39 0 0.0 1.7 0.00 0.01 0.00 79 1012.8
20260506113031 40 0 0.0 1.7 0.00 0.01 0.00 79 1012.7
20260506111529 40 0 0.0 1.7 0.00 0.01 0.00 78 1012.9
20260506110032 40 0 0.0 1.7 0.00 0.01 0.00 78 1012.7
20260506104527 40 0 0.0 3.5 0.00 0.01 0.00 79 1012.7
20260506103035 40 0 0.0 7.0 0.00 0.01 0.00 79 1012.3
20260506101527 40 201 0.0 8.7 0.00 0.01 0.00 79 1012.1
20260506100030 41 0 0.0 13.0 0.00 0.01 0.00 76 1012.0
20260506094533 42 218 0.9 10.4 0.00 0.01 0.00 70 1012.0
20260506093030 43 0 1.7 10.4 0.00 0.01 0.00 67 1011.9
20260506091532 43 228 0.0 5.2 0.00 0.01 0.00 66 1011.8
20260506090041 43 0 0.0 4.3 0.00 0.01 0.00 64 1011.7
20260506084530 44 0 0.0 0.0 0.00 0.01 0.00 61 1011.7
20260506083028 44 0 0.0 0.0 0.00 0.01 0.00 60 1011.5
20260506081533 44 0 0.0 1.7 0.00 0.01 0.00 62 1011.4
20260506073030 45 161 2.6 10.4 0.00 0.01 0.01 60 1010.9
20260506071530 45 0 1.7 9.6 0.00 0.01 0.01 60 1010.9